UKV1254 EGNX-LPFR

Flight info

Callsign UKV1254
Flight time N/A
Altitude 23000
Route SAPCO Y53 DTY M605 SILVA/N0449F360 Q41 SAM/N0450F370 M195 LORKU DCT POZOF DCT BALDA DCT ABUPI DCT ORVED DCT ALAGU
Aircraft B738/M-SDE2E3FGHIRWXY/LB1

Departure

Time 2026-05-08 09:16
Airport East Midlands Airport (EGNX)

Arrival

Time N/A
Airport Faro - Gago Coutinho International Airport (LPFR)
Time Latitude Longitude Altitude Speed Heading
2026-05-08 08:53 52.82809 -1.33495 300 ft 0 kts 88°
2026-05-08 09:06 52.82808 -1.33526 302 ft 3 kts 88°
2026-05-08 09:06 52.82807 -1.33557 301 ft 3 kts 88°
2026-05-08 09:07 52.82807 -1.33586 301 ft 3 kts 68°
2026-05-08 09:07 52.82797 -1.33607 301 ft 0 kts
2026-05-08 09:11 52.82798 -1.33607 300 ft 1 kts
2026-05-08 09:12 52.82840 -1.33606 302 ft 9 kts 357°
2026-05-08 09:12 52.82902 -1.33627 303 ft 8 kts 321°
2026-05-08 09:12 52.82914 -1.33708 303 ft 8 kts 271°
2026-05-08 09:12 52.82913 -1.33805 304 ft 9 kts 269°
2026-05-08 09:13 52.82911 -1.33920 304 ft 12 kts 270°
2026-05-08 09:13 52.82909 -1.34082 300 ft 17 kts 267°
2026-05-08 09:13 52.82907 -1.34278 304 ft 17 kts 271°
2026-05-08 09:13 52.82905 -1.34466 304 ft 17 kts 268°
2026-05-08 09:14 52.82902 -1.34673 303 ft 18 kts 269°
2026-05-08 09:14 52.82900 -1.34844 305 ft 10 kts 268°
2026-05-08 09:14 52.82930 -1.34931 305 ft 9 kts 341°
2026-05-08 09:14 52.82992 -1.34939 304 ft 9 kts 358°
2026-05-08 09:15 52.83053 -1.34922 306 ft 9 kts 43°
2026-05-08 09:15 52.83064 -1.34822 303 ft 11 kts 88°
2026-05-08 09:15 52.83068 -1.34577 301 ft 37 kts 88°
2026-05-08 09:15 52.83080 -1.33779 306 ft 101 kts 88°
2026-05-08 09:16 52.83110 -1.32302 301 ft 154 kts 88°
2026-05-08 09:16 52.83116 -1.30326 541 ft 180 kts 94°
2026-05-08 09:16 52.83054 -1.28320 1425 ft 173 kts 97°
2026-05-08 09:16 52.82952 -1.26250 1976 ft 191 kts 99°
2026-05-08 09:17 52.82681 -1.23989 2468 ft 207 kts 111°
2026-05-08 09:17 52.81912 -1.21929 3104 ft 223 kts 138°
2026-05-08 09:17 52.80726 -1.20207 3860 ft 237 kts 141°
2026-05-08 09:17 52.79546 -1.18162 4596 ft 253 kts 131°
2026-05-08 09:18 52.78395 -1.15943 5522 ft 256 kts 143°
2026-05-08 09:18 52.76781 -1.14815 6541 ft 257 kts 176°
2026-05-08 09:18 52.75026 -1.15464 7486 ft 261 kts 207°
2026-05-08 09:18 52.73510 -1.17101 8382 ft 267 kts 219°
2026-05-08 09:19 52.72098 -1.19132 9278 ft 271 kts 224°
2026-05-08 09:19 52.70680 -1.21259 9946 ft 283 kts 223°
2026-05-08 09:19 52.69147 -1.23406 10020 ft 289 kts 220°
2026-05-08 09:19 52.67577 -1.25440 10021 ft 284 kts 219°
2026-05-08 09:20 52.65978 -1.27451 10035 ft 300 kts 219°
2026-05-08 09:20 52.64243 -1.29668 10087 ft 327 kts 220°
2026-05-08 09:20 52.62451 -1.32000 10921 ft 331 kts 220°
2026-05-08 09:20 52.60630 -1.34377 11774 ft 337 kts 218°
2026-05-08 09:21 52.58542 -1.36164 12606 ft 343 kts 199°
2026-05-08 09:21 52.56192 -1.36666 13445 ft 351 kts 179°
2026-05-08 09:22 52.42051 -1.27619 18272 ft 375 kts 161°
2026-05-08 09:23 52.39619 -1.26007 18983 ft 379 kts 161°
2026-05-08 09:23 52.37171 -1.24371 19651 ft 382 kts 160°
2026-05-08 09:23 52.34698 -1.22699 20287 ft 386 kts 160°
2026-05-08 09:23 52.32198 -1.21001 20917 ft 390 kts 160°
2026-05-08 09:24 52.29682 -1.19298 21541 ft 394 kts 160°
2026-05-08 09:24 52.27133 -1.17582 22153 ft 398 kts 160°
2026-05-08 09:24 52.24560 -1.15858 22741 ft 402 kts 160°
2026-05-08 09:24 52.21997 -1.14142 23335 ft 405 kts 160°
2026-05-08 09:25 52.19378 -1.12387 23861 ft 408 kts 160°
2026-05-08 09:25 52.16658 -1.11037 24335 ft 410 kts 170°
2026-05-08 09:25 52.13842 -1.10058 24711 ft 415 kts 171°
2026-05-08 09:25 52.10991 -1.09120 25105 ft 420 kts 171°
2026-05-08 09:26 52.08107 -1.08204 25487 ft 425 kts 171°
2026-05-08 09:26 52.05192 -1.07276 25860 ft 429 kts 171°
2026-05-08 09:26 52.02244 -1.06318 26200 ft 434 kts 171°
2026-05-08 09:26 51.99262 -1.05336 26544 ft 439 kts 171°
2026-05-08 09:27 51.96253 -1.04345 26918 ft 442 kts 171°
2026-05-08 09:27 51.93230 -1.03360 27259 ft 446 kts 171°
2026-05-08 09:27 51.90163 -1.02368 27608 ft 450 kts 171°
2026-05-08 09:27 51.87084 -1.01407 27941 ft 453 kts 174°
2026-05-08 09:28 51.83940 -1.01083 28303 ft 454 kts 184°
2026-05-08 09:28 51.80792 -1.01612 28601 ft 456 kts 191°
2026-05-08 09:28 51.77679 -1.02376 28832 ft 461 kts 192°
2026-05-08 09:28 51.74502 -1.03224 29108 ft 465 kts 193°
2026-05-08 09:29 51.71301 -1.04094 29386 ft 468 kts 192°
2026-05-08 09:29 51.68059 -1.04948 29667 ft 471 kts 192°
2026-05-08 09:29 51.64811 -1.05769 29943 ft 475 kts 192°
2026-05-08 09:29 51.61544 -1.06649 30214 ft 476 kts 196°
2026-05-08 09:30 51.58333 -1.07962 30449 ft 478 kts 198°
2026-05-08 09:30 51.55130 -1.09319 30888 ft 475 kts 199°
2026-05-08 09:30 51.51942 -1.10695 31285 ft 473 kts 199°
2026-05-08 09:30 51.48766 -1.12073 31684 ft 472 kts 199°
2026-05-08 09:31 51.45599 -1.13436 32075 ft 470 kts 199°
2026-05-08 09:31 51.42437 -1.14780 32476 ft 469 kts 199°
2026-05-08 09:31 51.39288 -1.16112 32854 ft 468 kts 200°
2026-05-08 09:31 51.36147 -1.17442 33245 ft 466 kts 200°
2026-05-08 09:32 51.33014 -1.18774 33622 ft 465 kts 200°
2026-05-08 09:32 51.29887 -1.20104 33958 ft 464 kts 200°
2026-05-08 09:32 51.26762 -1.21430 34290 ft 463 kts 200°
2026-05-08 09:32 51.23653 -1.22744 34599 ft 462 kts 200°
2026-05-08 09:33 51.20540 -1.24057 34921 ft 461 kts 200°
2026-05-08 09:33 51.17447 -1.25360 35258 ft 459 kts 200°
2026-05-08 09:33 51.14361 -1.26659 35578 ft 457 kts 199°
2026-05-08 09:33 51.11288 -1.27953 35898 ft 456 kts 199°
2026-05-08 09:34 51.08220 -1.29242 36213 ft 454 kts 199°
2026-05-08 09:34 51.05171 -1.30521 36522 ft 453 kts 199°
2026-05-08 09:34 51.02128 -1.31795 36830 ft 451 kts 199°
2026-05-08 09:34 50.99097 -1.33063 37080 ft 451 kts 199°
2026-05-08 09:35 50.96097 -1.34587 37128 ft 451 kts 207°
2026-05-08 09:35 50.90699 -1.39544 37122 ft 449 kts 217°
2026-05-08 09:36 50.85568 -1.44924 37118 ft 441 kts 218°
2026-05-08 09:36 50.80455 -1.50268 37078 ft 440 kts 217°
2026-05-08 09:37 50.75338 -1.55537 37060 ft 438 kts 217°
2026-05-08 09:37 50.70227 -1.60817 37060 ft 439 kts 217°
2026-05-08 09:38 50.65109 -1.66095 37057 ft 439 kts 217°
2026-05-08 09:38 50.59990 -1.71347 37055 ft 439 kts 217°
2026-05-08 09:39 50.55714 -1.75726 37060 ft 440 kts 217°
2026-05-08 09:39 50.50578 -1.80979 37062 ft 440 kts 217°
2026-05-08 09:40 50.45438 -1.86218 37059 ft 440 kts 218°
2026-05-08 09:40 50.40341 -1.91396 37049 ft 432 kts 218°
2026-05-08 09:41 50.35298 -1.96512 37058 ft 432 kts 218°
2026-05-08 09:41 50.30230 -2.01641 37061 ft 434 kts 218°
2026-05-08 09:42 50.25155 -2.06757 37058 ft 434 kts 218°
2026-05-08 09:42 50.20045 -2.11808 37056 ft 434 kts 217°
2026-05-08 09:43 50.14902 -2.16759 37056 ft 434 kts 217°
2026-05-08 09:43 50.09825 -2.21698 37056 ft 433 kts 217°
2026-05-08 09:44 50.04716 -2.26665 37053 ft 433 kts 217°
2026-05-08 09:44 49.99605 -2.31594 37056 ft 428 kts 217°
2026-05-08 09:45 49.94552 -2.36453 37037 ft 427 kts 215°
2026-05-08 09:45 49.89145 -2.40459 37044 ft 432 kts 210°
2026-05-08 09:46 49.83646 -2.44292 37056 ft 433 kts 209°
2026-05-08 09:46 49.78143 -2.48112 37056 ft 432 kts 209°
2026-05-08 09:47 49.72690 -2.51915 37052 ft 433 kts 209°
2026-05-08 09:47 49.67193 -2.55728 37054 ft 432 kts 209°
2026-05-08 09:48 49.61707 -2.59521 37034 ft 432 kts 209°
2026-05-08 09:48 49.56212 -2.63315 37031 ft 432 kts 209°
2026-05-08 09:49 49.50722 -2.67096 37029 ft 432 kts 209°
2026-05-08 09:49 49.45243 -2.70858 37024 ft 428 kts 209°
2026-05-08 09:50 49.39828 -2.74566 37029 ft 425 kts 209°
2026-05-08 09:50 49.34410 -2.78273 37033 ft 427 kts 209°
2026-05-08 09:51 49.28978 -2.81977 37041 ft 428 kts 208°
2026-05-08 09:51 49.23572 -2.85653 37035 ft 426 kts 208°
2026-05-08 09:52 49.18155 -2.89329 37041 ft 426 kts 208°
2026-05-08 09:52 49.12723 -2.93007 37038 ft 426 kts 208°
2026-05-08 09:53 49.07296 -2.96672 37036 ft 426 kts 208°
2026-05-08 09:53 49.01866 -3.00330 37015 ft 426 kts 208°
2026-05-08 09:54 48.96451 -3.03969 37026 ft 425 kts 208°
2026-05-08 09:54 48.90993 -3.07630 37032 ft 425 kts 208°
2026-05-08 09:55 48.85617 -3.11225 37026 ft 424 kts 208°
2026-05-08 09:55 48.80216 -3.14829 37026 ft 425 kts 208°
2026-05-08 09:56 48.74796 -3.18439 37028 ft 424 kts 208°
2026-05-08 09:56 48.69383 -3.22033 37025 ft 425 kts 208°
2026-05-08 09:57 48.61260 -3.27413 37026 ft 425 kts 208°
2026-05-08 09:57 48.55876 -3.30967 37022 ft 425 kts 207°
2026-05-08 09:58 48.50455 -3.34539 37038 ft 425 kts 207°
2026-05-08 09:58 48.45033 -3.38101 37008 ft 423 kts 207°
2026-05-08 09:59 48.39638 -3.41637 36999 ft 422 kts 207°
2026-05-08 09:59 48.34248 -3.45165 37005 ft 423 kts 207°
2026-05-08 10:00 48.28848 -3.48689 37004 ft 423 kts 207°
2026-05-08 10:00 48.23442 -3.52209 36997 ft 423 kts 207°
2026-05-08 10:01 48.18028 -3.55727 37009 ft 424 kts 207°
2026-05-08 10:01 48.12642 -3.59217 36989 ft 424 kts 207°
2026-05-08 10:02 48.07229 -3.62717 36986 ft 423 kts 207°
2026-05-08 10:02 48.01817 -3.66209 36977 ft 424 kts 207°
2026-05-08 10:03 47.96404 -3.69694 36980 ft 424 kts 207°
2026-05-08 10:03 47.90980 -3.73177 36966 ft 423 kts 206°
2026-05-08 10:04 47.85565 -3.76647 36978 ft 424 kts 206°
2026-05-08 10:04 47.80144 -3.80112 36975 ft 423 kts 206°
2026-05-08 10:05 47.74738 -3.83560 36974 ft 422 kts 206°
2026-05-08 10:05 47.69349 -3.86989 36961 ft 421 kts 206°
2026-05-08 10:06 47.63985 -3.90396 36968 ft 422 kts 206°
2026-05-08 10:06 47.58585 -3.93816 36972 ft 422 kts 206°
2026-05-08 10:07 47.53187 -3.97228 36970 ft 422 kts 206°
2026-05-08 10:07 47.47782 -4.00638 36955 ft 421 kts 206°
2026-05-08 10:08 47.42384 -4.04034 36964 ft 421 kts 206°
2026-05-08 10:08 47.37018 -4.07403 36967 ft 421 kts 206°
2026-05-08 10:09 47.31615 -4.10788 36964 ft 421 kts 206°
2026-05-08 10:09 47.26222 -4.14160 36962 ft 420 kts 205°
2026-05-08 10:10 47.20833 -4.17520 36959 ft 419 kts 205°
2026-05-08 10:10 47.15472 -4.20856 36958 ft 418 kts 205°
2026-05-08 10:11 47.10097 -4.24193 36948 ft 419 kts 205°
2026-05-08 10:11 47.04721 -4.27496 36949 ft 418 kts 204°
2026-05-08 10:12 46.99304 -4.30440 36949 ft 418 kts 202°
2026-05-08 10:12 46.93823 -4.33361 36963 ft 419 kts 202°
2026-05-08 10:13 46.88378 -4.36387 36941 ft 418 kts 202°
2026-05-08 10:13 46.82928 -4.39367 36946 ft 417 kts 202°
2026-05-08 10:14 46.77481 -4.42319 36947 ft 418 kts 202°
2026-05-08 10:14 46.72057 -4.45273 36944 ft 418 kts 202°
2026-05-08 10:15 46.66611 -4.48229 36944 ft 417 kts 202°